Weather History for Oxford, NC

Change the Weather History Date:

Monday, April 1, 2013

  Actual Average (KTDF) Record (KTDF)
Temperature  
Mean Temperature 59 °F -  
Max Temperature 70 °F 69 °F 89 °F (1986)
Min Temperature 48 °F 42 °F 23 °F (1964)
Degree Days  
Heating Degree Days 6    
Growing Degree Days 9 (Base 50)    
Moisture  
Dew Point 42 °F    
Average Humidity 61    
Maximum Humidity 97    
Minimum Humidity 25    
Precipitation  
Precipitation 0.01 in - - ()
Sea Level Pressure  
Sea Level Pressure 29.86 in    
Wind  
Wind Speed 6 mph (West)    
Max Wind Speed 16 mph    
Max Gust Speed 26 mph    
Visibility 9 miles    
Events Rain    
Averages and records for this station are not official NWS values.
T = Trace of Precipitation, MM = Missing Value Source: NWS Daily Summary

Daily Weather History Graph

Daily Weather History Graph

Search for Another Location

Airport:

Trip Planner

Search our weather history database for the weather conditions in past years. The results will help you decide how hot, cold, wet, or windy it might be!

Date:

Astronomy

Apr. 01, 2013 Rise Set
Actual Time 6:59 AM EDT 7:36 PM EDT
Civil Twilight 6:33 AM EDT 8:02 PM EDT
Nautical Twilight 6:03 AM EDT 8:33 PM EDT
Astronomical Twilight 5:32 AM EDT 9:04 PM EDT
Moon 12:35 AM EDT (4/1) 10:52 AM EDT (4/1)
Length of Visible Light 13h 28m
Length of Day
12h 36m
Waning Gibbous, 67% of the Moon is Illuminated
Apr 1
Waning Gibbous
Apr 3
Last Quarter
Apr 10
New
Apr 18
First Quarter
Apr 25
Full

Hourly Weather History & Observations

Time (EDT) Temp. Dew Point Humidity Pressure Visibility Wind Dir Wind Speed Gust Speed Precip Events Conditions
12:15 AM 54.7 °F 52.9 °F 94% 29.84 in 10.0 mi SW 5.8 mph - N/A   Overcast
12:35 AM 54.5 °F 52.7 °F 94% 29.84 in 10.0 mi SSW 5.8 mph - N/A   Overcast
12:55 AM 54.5 °F 52.7 °F 94% 29.83 in 10.0 mi SSW 6.9 mph - N/A   Overcast
1:15 AM 54.3 °F 52.5 °F 94% 29.84 in 10.0 mi SSW 5.8 mph - N/A   Mostly Cloudy
1:35 AM 54.1 °F 52.7 °F 95% 29.84 in 10.0 mi SSW 6.9 mph - N/A   Scattered Clouds
1:55 AM 54.5 °F 52.9 °F 94% 29.84 in 7.0 mi SSW 6.9 mph - N/A   Mostly Cloudy
2:15 AM 54.5 °F 52.9 °F 94% 29.83 in 7.0 mi SSW 5.8 mph - N/A   Overcast
2:35 AM 54.3 °F 53.1 °F 95% 29.84 in 5.0 mi SW 4.6 mph - N/A   Overcast
2:55 AM 54.5 °F 53.1 °F 95% 29.84 in 4.0 mi SW 4.6 mph - N/A Rain Light Rain
3:15 AM 54.1 °F 52.9 °F 95% 29.84 in 4.0 mi SSW 6.9 mph - N/A Rain Light Rain
3:35 AM 54.0 °F 52.7 °F 95% 29.84 in 4.0 mi SW 4.6 mph - N/A Rain Light Rain
3:55 AM 54.1 °F 52.9 °F 95% 29.83 in 4.0 mi SW 5.8 mph - N/A Rain Light Rain
4:15 AM 54.0 °F 52.7 °F 95% 29.82 in 4.0 mi Calm Calm - 0.01 in Rain Light Rain
4:35 AM 54.0 °F 52.7 °F 95% 29.82 in 4.0 mi Calm Calm - 0.01 in Rain Light Rain
4:55 AM 53.6 °F 52.5 °F 96% 29.82 in 4.0 mi Calm Calm - 0.01 in   Overcast
5:15 AM 53.6 °F 52.7 °F 97% 29.83 in 3.0 mi SW 3.5 mph - N/A   Overcast
5:35 AM 53.6 °F 52.3 °F 95% 29.84 in 3.0 mi Calm Calm - N/A   Light Drizzle
5:55 AM 53.6 °F 52.3 °F 95% 29.84 in 5.0 mi Calm Calm - N/A   Overcast
6:15 AM 53.1 °F 52.0 °F 96% 29.85 in 7.0 mi Calm Calm - N/A   Overcast
6:35 AM 52.7 °F 51.8 °F 97% 29.86 in 7.0 mi Calm Calm - N/A   Overcast
6:55 AM 52.7 °F 51.4 °F 95% 29.86 in 3.0 mi Calm Calm - N/A   Scattered Clouds
7:15 AM 52.2 °F 50.9 °F 95% 29.86 in 7.0 mi WNW 3.5 mph - N/A   Clear
7:35 AM 51.6 °F 50.2 °F 95% 29.87 in 10.0 mi Calm Calm - N/A   Clear
7:55 AM 50.9 °F 49.6 °F 95% 29.88 in 1.5 mi Calm Calm - N/A   Mist
8:15 AM 51.6 °F 49.6 °F 93% 29.88 in 10.0 mi Calm Calm - N/A   Clear
8:35 AM 52.0 °F 47.3 °F 84% 29.88 in 10.0 mi Calm Calm - N/A   Clear
8:55 AM 51.8 °F 49.1 °F 90% 29.88 in 10.0 mi Calm Calm - N/A   Clear
9:15 AM 52.9 °F 47.3 °F 81% 29.88 in 10.0 mi West 3.5 mph - N/A   Clear
9:35 AM 55.2 °F 47.1 °F 74% 29.88 in 10.0 mi West 3.5 mph - N/A   Clear
9:55 AM 54.5 °F 46.0 °F 73% 29.87 in 10.0 mi Calm Calm - N/A   Clear
10:15 AM 56.5 °F 45.5 °F 67% 29.87 in 10.0 mi WSW 3.5 mph - N/A   Clear
10:35 AM 56.7 °F 45.7 °F 67% 29.87 in 10.0 mi WSW 3.5 mph - N/A   Clear
10:55 AM 59.9 °F 45.5 °F 59% 29.87 in 10.0 mi West 3.5 mph - N/A   Clear
11:15 AM 61.2 °F 40.6 °F 47% 29.87 in 10.0 mi West 4.6 mph - N/A   Clear
11:35 AM 63.0 °F 40.3 °F 43% 29.86 in 10.0 mi WSW 5.8 mph - N/A   Clear
11:55 AM 64.4 °F 39.7 °F 40% 29.86 in 10.0 mi West 6.9 mph - N/A   Clear
12:15 PM 64.8 °F 36.3 °F 35% 29.86 in 10.0 mi West 6.9 mph - N/A   Clear
12:35 PM 65.7 °F 37.4 °F 35% 29.86 in 10.0 mi West 6.9 mph - N/A   Clear
12:55 PM 66.2 °F 37.8 °F 35% 29.85 in 10.0 mi WSW 6.9 mph - N/A   Clear
1:15 PM 66.7 °F 36.7 °F 33% 29.85 in 10.0 mi WNW 12.7 mph 18.4 mph N/A   Clear
1:35 PM 67.3 °F 37.8 °F 34% 29.84 in 10.0 mi WSW 5.8 mph - N/A   Scattered Clouds
1:55 PM 68.0 °F 37.2 °F 32% 29.82 in 10.0 mi West 6.9 mph - N/A   Scattered Clouds
2:15 PM 68.5 °F 36.0 °F 30% 29.82 in 10.0 mi West 11.5 mph 20.7 mph N/A   Scattered Clouds
2:35 PM 69.3 °F 35.8 °F 29% 29.82 in 10.0 mi WNW 11.5 mph 20.7 mph N/A   Scattered Clouds
2:55 PM 69.8 °F 34.5 °F 27% 29.81 in 10.0 mi WSW 12.7 mph 21.9 mph N/A   Mostly Cloudy
3:15 PM 70.2 °F 34.2 °F 27% 29.81 in 10.0 mi West 11.5 mph 23.0 mph N/A   Mostly Cloudy
3:35 PM 69.4 °F 35.6 °F 29% 29.80 in 10.0 mi West 9.2 mph 16.1 mph N/A   Mostly Cloudy
3:55 PM 68.7 °F 34.9 °F 29% 29.80 in 10.0 mi West 5.8 mph 18.4 mph N/A   Overcast
4:15 PM 68.2 °F 32.9 °F 27% 29.80 in 10.0 mi West 8.1 mph 19.6 mph N/A   Mostly Cloudy
4:35 PM 68.5 °F 33.3 °F 27% 29.80 in 10.0 mi West 10.4 mph 17.3 mph N/A   Mostly Cloudy
4:55 PM 70.0 °F 32.7 °F 25% 29.80 in 10.0 mi West 13.8 mph 26.5 mph N/A   Scattered Clouds
5:15 PM 67.3 °F 33.3 °F 28% 29.81 in 10.0 mi West 16.1 mph 21.9 mph N/A   Scattered Clouds
5:35 PM 68.2 °F 33.3 °F 27% 29.82 in 10.0 mi WNW 10.4 mph 24.2 mph N/A   Scattered Clouds
5:55 PM 66.4 °F 33.1 °F 29% 29.83 in 10.0 mi West 12.7 mph 23.0 mph N/A   Scattered Clouds
6:15 PM 66.0 °F 34.2 °F 31% 29.84 in 10.0 mi WNW 6.9 mph 19.6 mph N/A   Mostly Cloudy
6:35 PM 64.4 °F 36.3 °F 35% 29.85 in 10.0 mi WNW 10.4 mph 16.1 mph N/A   Overcast
6:55 PM 63.5 °F 36.1 °F 36% 29.85 in 10.0 mi West 9.2 mph 16.1 mph N/A   Overcast
7:15 PM 63.0 °F 35.8 °F 36% 29.86 in 10.0 mi WNW 5.8 mph - N/A   Overcast
7:35 PM 61.9 °F 36.5 °F 39% 29.86 in 10.0 mi WNW 5.8 mph - N/A   Mostly Cloudy
7:55 PM 61.0 °F 36.9 °F 41% 29.87 in 10.0 mi WNW 3.5 mph - N/A   Scattered Clouds
8:15 PM 60.3 °F 36.9 °F 42% 29.87 in 10.0 mi WNW 4.6 mph - N/A   Clear
8:35 PM 59.5 °F 36.7 °F 43% 29.88 in 10.0 mi NW 5.8 mph - N/A   Scattered Clouds
8:55 PM 58.5 °F 36.5 °F 44% 29.89 in 10.0 mi NNW 8.1 mph - N/A   Scattered Clouds
9:15 PM 57.7 °F 36.5 °F 45% 29.90 in 10.0 mi NNW 8.1 mph - N/A   Mostly Cloudy
9:35 PM 57.4 °F 34.5 °F 42% 29.90 in 10.0 mi NNW 6.9 mph - N/A   Mostly Cloudy
9:55 PM 56.3 °F 34.0 °F 43% 29.90 in 10.0 mi NW 8.1 mph - N/A   Scattered Clouds
10:15 PM 56.1 °F 32.5 °F 41% 29.92 in 10.0 mi NNW 12.7 mph 18.4 mph N/A   Clear
10:35 PM 53.6 °F 32.0 °F 44% 29.94 in 10.0 mi NNW 13.8 mph 21.9 mph N/A   Clear
10:55 PM 51.3 °F 31.1 °F 46% 29.96 in 10.0 mi North 13.8 mph 21.9 mph N/A   Clear
11:15 PM 49.5 °F 29.7 °F 47% 29.97 in 10.0 mi North 11.5 mph 20.7 mph N/A   Clear
11:35 PM 48.6 °F 29.3 °F 47% 29.98 in 10.0 mi NNW 9.2 mph - N/A   Clear
11:55 PM 48.0 °F 29.1 °F 48% 30.00 in 10.0 mi NNW 6.9 mph - N/A   Clear